Temperature
11 11 12 12 12 12 12 12 12 12 12 12 12 12 12 11 11 11 11 11 11 11 11 11 11 11 11 11 11 11 11 11 11 11 11 11 10 10 10 10 10 10 10
11 11 11 11 11 12 12 12 12 12 12 12 11 11 11 11 11 11 11 11 11 11 11 11 11 11 10 10 10 10 10 10 10 10 10 10 10 10 10 10 10 10 10
10 10 10 11 11 11 11 11 11 11 11 11 11 11 11 11 10 10 10 10 10 10 10 10 10 10 10 10 10 10 10 10 10 10 10 10 10 10 10 10 10 10 10
10 10 10 10 10 10 10 11 11 11 11 11 11 10 10 10 10 10 10 10 10 10 10 10 10 10 10 9 9 9 9 9 9 9 9 9 9 9 9 9 9 9 9
9 9 9 9 10 10 10 10 10 10 10 10 10 10 10 10 10 9 9 9 9 9 9 9 9 9 9 9 9 9 9 9 9 9 9 9 9 9 9 9 9 9 9
9 9 9 9 9 9 9 9 9 9 10 10 10 9 9 9 9 9 9 9 9 9 9 9 9 9 9 9 9 8 8 8 8 8 8 8 8 8 8 8 8 8 8
8 8 8 8 8 8 8 8 9 9 9 9 9 9 9 9 9 9 9 9 9 8 9 9 9 9 9 8 8 8 8 8 8 8 8 7 7 8 8 8 8 8 8
7 7 7 8 8 8 8 8 8 8 8 8 8 8 8 8 8 8 8 8 8 8 8 8 8 8 8 8 8 8 8 8 8 7 7 7 7 7 7 7 7 7 7
7 7 7 7 7 7 7 7 7 7 7 7 7 7 7 7 7 7 7 8 8 7 7 8 7 7 7 7 7 7 7 7 7 7 7 7 7 7 7 7 7 7 7
6 6 6 7 7 7 7 7 7 7 7 7 6 6 7 7 6 6 6 7 7 7 7 7 7 7 7 7 7 7 7 7 7 6 6 6 6 6 6 6 6 6 6
6 6 6 6 6 6 6 6 6 6 6 6 6 6 6 6 6 6 5 6 6 6 6 6 6 6 6 6 6 6 6 6 6 6 6 6 6 6 6 6 6 6 6
5 5 5 5 5 5 5 6 6 6 6 5 5 5 5 5 5 5 5 5 5 5 5 6 6 6 6 6 6 6 6 6 6 5 5 5 6 6 6 5 5 5 5
4 4 4 5 5 5 5 5 5 5 5 5 5 5 5 5 5 5 5 4 4 4 5 5 5 5 5 5 5 5 5 5 5 5 5 5 5 5 5 5 5 5 5
3 4 4 4 4 4 4 4 4 4 4 4 4 4 4 4 4 4 4 4 4 3 4 4 4 4 4 4 4 4 4 4 4 4 4 5 5 4 4 4 4 4 4
3 3 3 3 3 3 3 3 3 4 4 4 4 4 4 4 4 4 3 3 3 3 3 3 3 4 4 4 4 4 4 4 4 4 4 4 4 4 4 4 4 4 4
2 2 3 3 3 3 3 3 3 3 3 3 3 3 3 3 3 3 3 3 3 3 2 3 3 3 3 3 3 3 3 3 3 3 3 3 3 3 3 3 3 3 3
2 2 2 2 2 2 2 2 2 2 2 2 3 2 3 3 2 3 3 2 2 2 2 2 2 2 3 3 3 3 3 3 3 3 3 3 3 3 3 3 3 3 3
1 1 1 1 2 2 2 2 2 2 2 2 2 2 2 2 2 2 2 2 2 2 2 2 2 2 2 2 2 2 2 2 2 2 2 2 2 2 2 2 2 2 2
1 1 1 1 1 1 1 1 1 1 1 1 1 1 1 2 1 1 1 1 1 1 1 1 1 1 1 1 1 2 2 2 1 1 1 1 1 1 1 1 2 2 2
1 1 1 1 1 1 1 1 0 1 1 1 1 1 1 1 1 1 0 1 1 1 1 1 1 1 1 1 1 1 1 1 1 1 1 1 1 1 1 1 1 1 1
0 0 0 0 0 -0 -0 -0 -0 -0 -0 0 0 0 -0 -0 -0 -0 -0 -0 0 0 0 -0 -0 -0 -0 -0 -0 0 0 0 0 0 0 0 0 1 1 1 1 1 1
-0 -0 -0 -0 -0 -1 -1 -1 -1 -1 -1 -1 -1 -1 -1 -0 -0 -0 -0 -0 -0 -0 -0 -0 -1 -1 -1 -1 -1 -1 -1 -1 -1 -0 -0 0 -0 0 0 0 0 0 -0
-1 -1 -1 -1 -1 -1 -1 -1 -1 -1 -1 -1 -1 -1 -1 -1 -1 -1 -1 -1 -1 -1 -1 -1 -1 -1 -1 -1 -1 -1 -1 -1 -1 -1 -1 -1 -0 -0 -0 -0 -0 -1 -1
-1 -1 -1 -1 -1 -1 -2 -2 -2 -1 -1 -2 -2 -2 -2 -2 -2 -2 -1 -1 -1 -1 -1 -1 -2 -1 -2 -2 -2 -2 -2 -2 -1 -2 -2 -1 -1 -1 -1 -1 -1 -1 -1
-2 -2 -2 -2 -2 -2 -2 -2 -2 -2 -2 -2 -2 -2 -2 -2 -2 -2 -2 -2 -2 -2 -2 -2 -2 -2 -2 -2 -2 -2 -2 -2 -2 -2 -2 -2 -2 -1 -1 -1 -1 -2 -2
-2 -2 -2 -2 -2 -2 -2 -2 -2 -2 -2 -2 -2 -2 -3 -3 -3 -3 -3 -2 -2 -2 -2 -2 -2 -2 -2 -2 -2 -2 -2 -3 -3 -3 -3 -3 -2 -3 -2 -2 -2 -2 -2
Wind_Speed
3 3 3 3 2 2 1 1 2 1 2 2 2 2 2 2 3 5 6 6 5 4 3 2 3 3 3 3 4 4 4 4 4 3 2 3 3 4 4 5 5 6 7
4 3 2 3 3 2 1 1 1 1 1 2 2 2 2 2 2 4 6 5 5 4 3 3 3 2 2 2 2 2 3 3 3 4 3 3 3 4 5 6 6 6 7
4 3 2 2 3 3 2 1 1 1 1 2 1 1 2 2 2 4 4 5 4 3 2 2 2 2 1 1 1 1 2 2 3 3 3 4 3 4 6 6 7 7 8
4 3 3 2 3 3 2 1 0 1 1 1 1 1 1 2 2 2 4 5 4 3 2 2 1 1 0 1 1 1 2 2 3 4 4 4 5 5 6 7 7 8 8
4 3 3 3 4 3 2 1 1 1 1 1 1 1 1 1 1 2 2 3 4 3 2 2 1 1 1 2 2 3 3 3 4 4 5 6 6 6 7 7 8 9 9
4 4 3 3 3 2 2 2 2 1 1 1 1 1 1 2 1 1 2 2 2 3 2 2 2 2 2 3 3 4 4 4 5 5 6 6 6 7 8 8 8 9 10
4 4 2 2 2 1 2 1 1 1 1 1 1 0 0 1 1 1 2 2 1 2 2 2 2 2 2 3 4 5 5 6 6 6 6 6 7 7 8 8 9 9 10
3 2 2 1 1 1 2 1 1 0 0 1 1 1 0 1 1 2 1 2 1 1 1 2 2 2 2 2 3 4 5 6 7 7 7 7 8 8 8 9 9 10 11
3 3 2 1 1 1 1 1 0 0 1 0 1 1 1 2 1 1 1 1 1 1 1 2 2 3 3 2 2 4 5 6 8 8 8 8 8 9 9 9 9 10 11
2 2 2 1 1 0 1 1 1 1 1 1 0 0 1 1 1 1 2 2 1 2 2 2 2 3 3 3 3 4 6 7 8 9 9 9 9 10 10 10 10 11 11
1 2 1 1 0 0 1 1 1 1 1 1 1 0 1 1 0 1 2 2 2 2 2 3 3 3 4 4 4 5 6 7 8 9 10 10 10 11 11 11 11 11 12
0 1 1 0 0 1 1 1 2 2 2 2 1 1 1 1 1 1 2 2 3 3 3 3 2 3 4 4 5 6 7 8 9 9 10 10 10 11 11 11 12 12 12
1 1 1 1 1 1 1 1 2 3 3 3 3 2 2 2 1 1 1 2 2 2 2 2 3 3 4 4 5 7 8 9 9 10 10 10 11 11 11 11 12 12 13
2 2 1 1 1 2 2 2 2 3 3 3 4 3 3 2 2 2 1 1 2 2 2 3 2 3 3 4 5 7 7 9 10 10 11 11 11 11 12 12 12 12 13
2 2 2 2 2 2 3 3 3 3 3 4 4 4 4 3 3 2 2 2 3 3 4 3 2 2 3 3 5 5 6 9 10 11 11 11 11 11 12 12 12 13 13
2 2 2 3 3 3 3 4 3 3 3 4 4 4 4 3 3 3 3 2 2 3 4 2 2 3 3 4 6 5 7 9 10 10 11 11 11 12 12 12 13 13 12
2 3 3 4 4 4 4 4 4 4 4 4 4 4 5 4 3 3 2 3 2 2 5 4 3 3 3 3 4 5 6 6 8 10 10 11 11 11 11 12 12 12 12
3 3 3 3 4 4 4 4 4 5 5 5 5 5 5 4 4 3 3 3 3 2 3 5 4 3 4 3 3 3 4 6 6 9 10 11 11 11 12 12 12 11 12
3 3 3 4 4 4 4 4 4 4 5 5 4 5 4 4 4 3 3 3 3 3 2 3 4 3 3 3 3 3 4 4 6 8 9 10 12 12 12 12 11 11 12
2 2 3 3 3 3 4 4 4 4 4 4 3 4 4 4 4 3 3 3 2 2 2 3 4 3 3 3 2 3 4 3 4 6 7 9 10 11 11 11 11 11 11
2 2 2 3 3 3 3 3 3 3 3 3 3 3 3 3 4 4 3 2 2 2 3 3 4 4 3 2 3 3 4 4 5 4 4 5 6 5 6 9 10 11 11
2 2 2 2 2 2 3 4 3 3 3 3 3 2 2 2 3 5 5 4 4 4 4 4 5 5 5 4 3 3 3 4 5 2 3 5 4 4 4 5 9 10 10
2 2 2 2 2 2 3 4 4 3 2 2 2 2 2 2 3 2 3 4 5 6 6 6 6 6 5 5 4 4 4 5 5 4 3 5 3 4 4 6 9 10 11
1 2 2 2 1 2 3 3 3 2 1 1 2 2 2 2 2 2 2 2 2 4 5 4 4 5 5 4 5 5 4 4 4 3 2 4 4 5 5 5 9 11 11
1 2 2 2 2 3 3 3 3 1 1 1 1 2 2 2 3 3 2 2 2 3 4 5 6 6 6 7 5 2 2 3 5 4 2 2 4 5 4 4 6 8 9
1 1 1 1 2 2 3 3 2 1 1 1 1 2 3 4 4 4 2 2 3 3 2 3 3 4 4 4 5 3 3 3 4 4 2 2 3 3 4 3 2 3 5
Wind_Direction
29 37 37 29 34 56 74 124 124 132 131 121 128 118 98 92 101 106 117 122 118 110 103 101 105 111 103 93 93 78 67 61 52 42 25 9 353 345 341 337 333 330 326
33 29 27 17 17 16 27 81 120 143 129 121 139 127 115 111 110 108 117 125 123 118 109 106 96 101 105 93 90 74 59 40 31 27 12 347 341 341 336 329 327 325 323
40 35 32 19 8 3 17 48 78 85 131 121 140 113 94 98 95 106 115 121 125 118 115 112 98 85 78 74 67 54 42 16 353 343 342 341 336 325 317 315 311 312 315
44 45 35 15 7 15 26 15 171 143 147 137 134 141 113 98 98 108 113 114 121 123 123 127 125 116 40 348 317 330 342 340 331 330 331 323 315 316 320 319 309 302 304
46 51 46 24 23 20 21 20 9 135 134 137 172 168 136 126 130 114 107 115 122 128 140 159 157 203 269 283 291 302 310 314 311 312 312 315 318 318 318 320 319 313 307
40 47 48 41 35 36 31 25 18 18 109 139 168 184 187 151 129 144 149 127 136 145 143 151 174 222 264 282 289 295 298 302 302 303 309 314 316 319 320 319 320 322 317
41 43 37 49 48 67 61 42 22 24 41 73 102 161 290 165 172 190 163 145 149 155 150 155 175 192 247 272 282 293 296 298 301 302 305 308 310 312 314 318 321 322 319
48 42 44 53 64 90 62 51 43 64 23 74 116 135 226 298 300 242 186 171 182 146 143 185 201 204 222 243 270 282 293 299 300 300 304 304 303 303 308 312 315 318 320
42 36 36 43 57 113 141 145 81 167 178 12 72 110 143 214 276 274 246 205 201 189 197 208 216 226 226 216 244 263 280 289 293 292 293 296 298 300 301 305 309 312 313
51 38 37 51 49 151 186 201 169 199 147 181 290 358 106 131 157 266 287 266 257 230 224 227 228 225 225 228 243 258 271 281 287 288 289 290 293 296 301 304 305 307 308
47 38 34 49 16 282 213 193 204 209 186 189 183 277 277 309 213 185 251 265 274 258 244 233 223 218 224 222 239 251 265 276 281 286 290 290 291 293 295 300 303 304 304
301 8 3 6 322 280 252 223 211 223 222 221 229 208 188 213 221 210 245 260 265 264 260 244 228 223 233 231 242 252 263 270 276 282 287 291 293 292 294 296 298 302 303
255 244 270 266 264 264 266 256 221 224 220 219 224 237 235 238 235 237 239 261 278 280 257 254 234 230 240 242 251 254 259 264 271 278 283 286 288 292 292 292 295 298 299
245 245 254 251 238 231 240 241 229 232 226 225 234 235 244 245 250 245 237 247 279 274 254 254 269 234 245 253 256 254 258 263 267 272 277 280 284 287 289 289 291 293 296
262 251 254 257 247 232 228 223 223 227 229 228 231 232 235 241 238 248 248 221 219 256 263 249 260 273 292 275 272 268 265 267 269 271 272 276 280 284 287 286 286 289 291
272 253 251 247 242 235 235 225 228 228 227 236 233 233 236 241 236 234 235 241 232 238 260 260 267 279 293 295 286 284 278 278 274 272 274 277 281 284 285 286 286 287 289
273 255 246 241 239 235 232 227 230 229 229 235 232 231 237 238 245 241 244 244 250 245 262 284 289 297 290 279 291 288 287 285 280 275 275 280 284 286 287 289 288 290 291
283 282 265 248 246 241 231 228 237 237 234 233 231 232 236 235 240 239 238 241 244 250 257 276 286 288 283 274 271 275 292 286 283 280 276 282 285 287 288 290 290 291 292
286 286 278 261 252 242 234 231 234 238 240 239 234 233 232 226 238 240 239 242 247 256 250 259 274 276 280 278 279 284 284 286 290 291 286 285 287 287 288 290 292 291 293
290 287 283 275 265 255 245 237 238 237 246 251 244 238 233 223 229 233 242 241 249 251 250 253 266 271 274 281 274 285 295 292 294 294 292 294 291 287 288 292 293 293 294
298 302 299 285 269 260 253 243 236 240 244 251 247 237 235 234 250 252 256 245 241 244 256 256 266 278 276 288 278 282 288 298 292 272 289 289 288 282 287 290 293 295 294
312 319 309 298 280 273 271 264 257 246 246 246 245 241 239 237 252 265 270 269 261 247 245 251 260 262 265 271 281 281 287 298 287 279 288 290 276 274 275 280 291 293 291
319 325 320 310 292 295 285 268 266 262 246 249 243 242 264 260 271 246 267 279 284 277 264 254 250 255 258 255 262 270 269 277 275 280 291 287 285 281 283 292 292 290 292
337 325 324 321 311 310 299 281 284 283 255 253 244 236 238 248 260 252 250 268 274 282 273 263 248 255 258 253 245 254 264 284 291 287 271 277 289 288 292 280 288 286 290
328 323 335 335 336 324 316 299 300 260 227 249 263 265 253 246 268 280 268 260 278 287 296 293 293 288 285 282 276 263 259 282 288 284 267 269 289 299 293 282 287 291 297
318 319 326 329 322 315 325 322 313 219 220 247 268 271 266 257 270 274 247 240 259 270 289 310 311 309 305 298 290 258 237 260 280 278 262 272 288 308 303 289 283 299 304
Height
1503 1504 1506 1507 1508 1510 1511 1512 1514 1515 1517 1518 1519 1520 1522 1523 1524 1524 1525 1526 1527 1528 1529 1529 1530 1530 1530 1530 1530 1530 1530 1530 1530 1530 1530 1529 1529 1529 1528 1528 1528 1527 1527
1501 1502 1504 1505 1506 1507 1509 1510 1512 1513 1515 1516 1517 1518 1520 1521 1522 1522 1523 1524 1525 1526 1527 1527 1528 1528 1528 1528 1529 1529 1529 1528 1528 1528 1528 1527 1527 1526 1526 1526 1525 1525 1524
1499 1500 1502 1503 1504 1505 1506 1508 1510 1511 1512 1514 1515 1516 1518 1519 1520 1520 1521 1522 1523 1524 1524 1525 1525 1526 1526 1526 1526 1526 1526 1526 1526 1526 1525 1525 1525 1524 1524 1523 1523 1522 1522
1497 1498 1499 1500 1501 1503 1504 1506 1507 1508 1510 1511 1513 1514 1515 1516 1517 1518 1519 1520 1521 1521 1522 1523 1523 1524 1524 1524 1524 1524 1524 1524 1524 1523 1523 1523 1522 1522 1521 1521 1520 1519 1518
1496 1496 1497 1498 1499 1500 1502 1503 1504 1505 1507 1508 1510 1512 1513 1514 1515 1516 1517 1517 1518 1519 1520 1520 1521 1521 1521 1522 1522 1521 1521 1521 1521 1521 1520 1520 1519 1519 1518 1518 1517 1516 1515
1494 1495 1495 1496 1497 1498 1499 1500 1502 1503 1504 1506 1507 1509 1510 1512 1513 1513 1514 1515 1516 1516 1517 1518 1518 1518 1519 1519 1519 1519 1518 1518 1518 1518 1517 1517 1516 1516 1515 1514 1514 1513 1512
1492 1493 1493 1494 1495 1496 1497 1498 1499 1501 1501 1503 1504 1506 1507 1509 1510 1511 1511 1512 1513 1514 1514 1515 1515 1515 1516 1516 1516 1516 1515 1515 1515 1515 1514 1513 1513 1512 1511 1511 1510 1509 1508
1490 1490 1491 1491 1492 1493 1494 1496 1497 1498 1499 1500 1501 1502 1503 1506 1506 1507 1508 1509 1509 1510 1511 1511 1512 1512 1512 1512 1512 1512 1512 1512 1512 1511 1511 1510 1509 1509 1508 1507 1506 1505 1504
1487 1488 1488 1489 1490 1490 1491 1493 1494 1495 1496 1497 1499 1500 1501 1501 1502 1504 1505 1505 1506 1507 1508 1508 1509 1509 1509 1509 1509 1509 1509 1509 1508 1508 1507 1506 1506 1505 1504 1503 1502 1501 1500
1485 1485 1486 1486 1487 1488 1489 1490 1491 1492 1493 1494 1496 1497 1499 1499 1501 1500 1501 1502 1503 1503 1504 1505 1505 1505 1505 1505 1505 1505 1505 1505 1504 1504 1503 1503 1502 1501 1500 1499 1498 1497 1496
1482 1482 1483 1483 1483 1484 1485 1486 1487 1488 1490 1491 1492 1494 1495 1497 1497 1498 1497 1498 1499 1499 1500 1501 1501 1501 1501 1501 1501 1501 1501 1501 1500 1500 1499 1498 1497 1497 1496 1495 1493 1492 1491
1479 1479 1480 1480 1480 1481 1482 1483 1484 1485 1486 1488 1489 1490 1492 1493 1493 1494 1494 1494 1494 1495 1496 1497 1497 1497 1497 1497 1497 1497 1497 1496 1496 1495 1494 1494 1493 1492 1491 1490 1489 1487 1487
1475 1476 1476 1477 1477 1478 1479 1480 1480 1482 1483 1484 1485 1486 1488 1489 1490 1490 1491 1490 1490 1490 1491 1492 1493 1493 1493 1492 1492 1492 1492 1492 1491 1491 1490 1489 1488 1487 1486 1485 1484 1483 1482
1471 1472 1472 1473 1474 1475 1475 1476 1477 1478 1479 1480 1481 1482 1483 1484 1486 1487 1487 1487 1487 1486 1487 1487 1488 1488 1488 1488 1488 1488 1487 1487 1486 1486 1485 1484 1483 1482 1481 1480 1479 1478 1477
1468 1468 1469 1470 1470 1471 1472 1472 1473 1474 1475 1476 1477 1478 1479 1480 1481 1482 1483 1484 1485 1483 1482 1482 1483 1484 1484 1483 1483 1483 1482 1482 1481 1481 1480 1479 1478 1477 1476 1475 1474 1473 1472
1464 1464 1465 1466 1466 1467 1468 1468 1469 1470 1471 1472 1473 1473 1474 1476 1477 1478 1478 1479 1480 1480 1478 1478 1479 1479 1479 1479 1479 1478 1477 1477 1476 1476 1475 1474 1473 1472 1471 1470 1469 1468 1466
1460 1460 1461 1461 1462 1462 1463 1464 1464 1465 1466 1467 1468 1469 1470 1471 1472 1473 1474 1475 1475 1475 1474 1473 1474 1474 1474 1474 1473 1473 1472 1472 1471 1471 1470 1469 1468 1467 1466 1465 1464 1463 1461
1457 1457 1457 1458 1458 1458 1459 1460 1460 1461 1462 1462 1463 1464 1465 1466 1467 1468 1469 1470 1470 1470 1470 1469 1469 1469 1469 1469 1468 1468 1468 1467 1466 1466 1465 1464 1463 1462 1461 1460 1458 1457 1456
1453 1453 1453 1454 1454 1454 1455 1455 1456 1456 1457 1458 1459 1459 1460 1461 1462 1463 1464 1465 1465 1465 1466 1465 1464 1464 1464 1464 1464 1463 1463 1462 1461 1461 1460 1459 1458 1457 1456 1455 1453 1452 1451
1449 1449 1449 1450 1450 1450 1451 1451 1452 1452 1453 1454 1454 1455 1456 1456 1457 1458 1459 1460 1460 1461 1461 1461 1460 1460 1460 1459 1459 1458 1457 1457 1456 1456 1455 1454 1453 1452 1451 1450 1448 1447 1446
1446 1446 1446 1446 1446 1446 1446 1447 1447 1448 1448 1449 1450 1451 1451 1452 1453 1454 1455 1455 1455 1456 1456 1456 1455 1455 1455 1454 1454 1453 1453 1452 1451 1451 1450 1449 1448 1446 1446 1444 1443 1441 1440
1443 1443 1443 1443 1443 1442 1442 1443 1443 1444 1444 1445 1446 1446 1447 1448 1449 1449 1450 1451 1452 1452 1452 1452 1451 1451 1450 1450 1450 1449 1449 1447 1446 1447 1445 1444 1443 1441 1441 1439 1438 1437 1435
1441 1440 1440 1440 1439 1439 1439 1440 1440 1440 1441 1441 1442 1442 1443 1444 1445 1445 1446 1446 1447 1447 1448 1448 1446 1446 1445 1445 1446 1445 1444 1443 1442 1442 1441 1439 1438 1436 1436 1435 1434 1432 1431
1439 1438 1438 1437 1437 1437 1437 1437 1437 1437 1437 1438 1438 1439 1440 1440 1440 1441 1441 1442 1442 1442 1443 1442 1442 1441 1441 1441 1442 1441 1440 1439 1438 1438 1437 1435 1433 1432 1431 1430 1429 1427 1426
1437 1437 1436 1435 1435 1434 1434 1435 1435 1434 1434 1435 1435 1436 1436 1436 1437 1437 1438 1438 1438 1438 1438 1438 1438 1437 1437 1437 1437 1437 1436 1435 1433 1432 1433 1432 1429 1427 1426 1424 1423 1422 1421
1436 1435 1434 1434 1433 1433 1432 1432 1432 1432 1431 1432 1432 1433 1433 1433 1434 1434 1434 1434 1434 1434 1434 1433 1433 1433 1433 1432 1432 1432 1432 1431 1429 1429 1428 1428 1426 1424 1421 1419 1419 1418 1417